EIN5KE LEMD-EIDW

Flight info

Callsign EIN5KE
Flight time 1h 59m
Altitude 34000
Route SIE N865 DELOG/N0436F360 DCT KOLEK/N0436F380 DCT AMPOP DCT UPCAB DCT IJALA DCT EVRIN DCT BUNED BUNED3R
Aircraft A320/M-SDE3FGHIRWY/LB1

Departure

Time 2026-04-30 09:26
Airport Adolfo Suárez Madrid–Barajas Airport (LEMD)

Arrival

Time 2026-04-30 11:26
Airport Dublin Airport (EIDW)
Time Latitude Longitude Altitude Speed Heading
2026-04-30 08:23 40.49739 -3.56853 1972 ft 0 kts 89°
2026-04-30 09:08 40.49738 -3.56865 1977 ft 4 kts 89°
2026-04-30 09:08 40.49738 -3.56901 1975 ft 4 kts 89°
2026-04-30 09:08 40.49738 -3.56935 1977 ft 3 kts 90°
2026-04-30 09:08 40.49739 -3.56964 1978 ft 4 kts 107°
2026-04-30 09:09 40.49751 -3.56993 1980 ft 4 kts 146°
2026-04-30 09:09 40.49774 -3.57004 1978 ft 3 kts 180°
2026-04-30 09:09 40.49787 -3.57004 1978 ft 0 kts 180°
2026-04-30 09:13 40.49786 -3.57004 1978 ft 1 kts 180°
2026-04-30 09:13 40.49756 -3.57005 1979 ft 7 kts 181°
2026-04-30 09:13 40.49706 -3.57005 1980 ft 9 kts 179°
2026-04-30 09:14 40.49594 -3.57010 1979 ft 20 kts 182°
2026-04-30 09:14 40.49445 -3.57004 1977 ft 22 kts 180°
2026-04-30 09:14 40.49303 -3.57011 1980 ft 12 kts 224°
2026-04-30 09:14 40.49279 -3.57096 1981 ft 9 kts 238°
2026-04-30 09:15 40.49213 -3.57117 1981 ft 12 kts 185°
2026-04-30 09:15 40.49181 -3.57193 1982 ft 9 kts 272°
2026-04-30 09:15 40.49182 -3.57266 1983 ft 6 kts 270°
2026-04-30 09:15 40.49182 -3.57292 1983 ft 0 kts 270°
2026-04-30 09:16 40.49182 -3.57303 1983 ft 6 kts 269°
2026-04-30 09:16 40.49182 -3.57333 1983 ft 0 kts 269°
2026-04-30 09:24 40.49182 -3.57343 1986 ft 3 kts 269°
2026-04-30 09:25 40.49181 -3.57383 1984 ft 4 kts 269°
2026-04-30 09:25 40.49190 -3.57445 1985 ft 7 kts 309°
2026-04-30 09:25 40.49236 -3.57451 1985 ft 8 kts
2026-04-30 09:25 40.49298 -3.57450 1983 ft 14 kts
2026-04-30 09:26 40.49634 -3.57454 1985 ft 85 kts 359°
2026-04-30 09:26 40.50420 -3.57460 1992 ft 142 kts 359°
2026-04-30 09:26 40.51569 -3.57476 2049 ft 182 kts 360°
2026-04-30 09:26 40.52810 -3.57487 2743 ft 177 kts 359°
2026-04-30 09:27 40.54043 -3.57503 3406 ft 180 kts 358°
2026-04-30 09:27 40.55374 -3.57590 3649 ft 202 kts 347°
2026-04-30 09:27 40.56576 -3.58621 3907 ft 217 kts 302°
2026-04-30 09:27 40.57297 -3.60406 4441 ft 226 kts 299°
2026-04-30 09:28 40.58267 -3.62037 5205 ft 229 kts 312°
2026-04-30 09:28 40.59444 -3.63431 5989 ft 231 kts 320°
2026-04-30 09:28 40.60729 -3.64728 6758 ft 233 kts 321°
2026-04-30 09:28 40.62038 -3.66013 7510 ft 236 kts 321°
2026-04-30 09:29 40.63443 -3.67149 8227 ft 240 kts 337°
2026-04-30 09:29 40.65091 -3.67664 8835 ft 253 kts 355°
2026-04-30 09:29 40.66937 -3.67509 9141 ft 278 kts
2026-04-30 09:29 40.68889 -3.67204 9651 ft 292 kts
2026-04-30 09:30 40.70938 -3.66899 10290 ft 302 kts
2026-04-30 09:30 40.73114 -3.66582 10517 ft 326 kts
2026-04-30 09:30 40.75422 -3.66248 10999 ft 337 kts
2026-04-30 09:30 40.77778 -3.65909 11693 ft 342 kts
2026-04-30 09:31 40.80168 -3.65566 12432 ft 346 kts
2026-04-30 09:31 40.82570 -3.65220 13174 ft 349 kts
2026-04-30 09:31 40.84970 -3.64872 13891 ft 353 kts
2026-04-30 09:31 40.87429 -3.64515 14536 ft 357 kts
2026-04-30 09:32 40.89916 -3.64154 15181 ft 360 kts
2026-04-30 09:32 40.92417 -3.63792 15811 ft 363 kts
2026-04-30 09:32 40.94944 -3.63427 16413 ft 367 kts
2026-04-30 09:32 40.97499 -3.63057 17037 ft 370 kts
2026-04-30 09:33 41.00077 -3.62684 17654 ft 374 kts
2026-04-30 09:33 41.02644 -3.62311 18271 ft 377 kts
2026-04-30 09:33 41.05269 -3.61928 18814 ft 380 kts
2026-04-30 09:33 41.07911 -3.61544 19338 ft 383 kts
2026-04-30 09:34 41.10569 -3.61155 19886 ft 386 kts
2026-04-30 09:34 41.13253 -3.60759 20420 ft 389 kts
2026-04-30 09:34 41.15952 -3.60420 20960 ft 390 kts 359°
2026-04-30 09:34 41.18682 -3.60203 21505 ft 393 kts 359°
2026-04-30 09:35 41.21417 -3.60186 22055 ft 394 kts 354°
2026-04-30 09:35 41.24165 -3.60350 22598 ft 396 kts 353°
2026-04-30 09:35 41.26929 -3.60575 23140 ft 398 kts 353°
2026-04-30 09:35 41.29705 -3.60782 23657 ft 401 kts 353°
2026-04-30 09:36 41.32512 -3.60943 24085 ft 405 kts 354°
2026-04-30 09:36 41.35306 -3.61056 24490 ft 408 kts 354°
2026-04-30 09:36 41.38159 -3.61133 24900 ft 411 kts 355°
2026-04-30 09:36 41.41029 -3.61188 25297 ft 413 kts 355°
2026-04-30 09:37 41.43917 -3.61238 25684 ft 416 kts 355°
2026-04-30 09:37 41.46817 -3.61292 26064 ft 418 kts 355°
2026-04-30 09:37 41.49745 -3.61355 26439 ft 420 kts 354°
2026-04-30 09:37 41.52679 -3.61413 26804 ft 423 kts 355°
2026-04-30 09:38 41.55636 -3.61435 27171 ft 426 kts 355°
2026-04-30 09:38 41.58615 -3.61429 27533 ft 428 kts 356°
2026-04-30 09:38 41.61566 -3.61405 27886 ft 431 kts 356°
2026-04-30 09:38 41.64576 -3.61380 28241 ft 433 kts 356°
2026-04-30 09:39 41.67601 -3.61362 28586 ft 435 kts 355°
2026-04-30 09:39 41.70634 -3.61353 28917 ft 437 kts 355°
2026-04-30 09:39 41.73684 -3.61352 29256 ft 439 kts 355°
2026-04-30 09:39 41.76752 -3.61360 29581 ft 441 kts 355°
2026-04-30 09:40 41.79831 -3.61368 29902 ft 444 kts 355°
2026-04-30 09:40 41.82927 -3.61372 30202 ft 446 kts 355°
2026-04-30 09:40 41.86033 -3.61374 30453 ft 448 kts 355°
2026-04-30 09:40 41.89162 -3.61372 30718 ft 449 kts 355°
2026-04-30 09:41 41.92300 -3.61368 30968 ft 451 kts 355°
2026-04-30 09:41 41.95443 -3.61369 31211 ft 453 kts 355°
2026-04-30 09:41 41.97530 -3.61371 31375 ft 453 kts 355°
2026-04-30 09:41 42.01754 -3.61375 31789 ft 453 kts 354°
2026-04-30 09:42 42.04905 -3.61432 32125 ft 451 kts 353°
2026-04-30 09:42 42.06985 -3.61528 32343 ft 450 kts 352°
2026-04-30 09:42 42.10106 -3.61736 32670 ft 449 kts 351°
2026-04-30 09:42 42.14234 -3.62064 33097 ft 448 kts 351°
2026-04-30 09:43 42.17345 -3.62317 33422 ft 447 kts 351°
2026-04-30 09:43 42.19441 -3.62477 33642 ft 447 kts 351°
2026-04-30 09:43 42.22559 -3.62698 33972 ft 447 kts 351°
2026-04-30 09:43 42.25625 -3.62901 34268 ft 447 kts 351°
2026-04-30 09:44 42.28740 -3.63096 34537 ft 446 kts 351°
2026-04-30 09:44 42.31851 -3.63289 34802 ft 446 kts 351°
2026-04-30 09:44 42.34955 -3.63483 35061 ft 445 kts 351°
2026-04-30 09:44 42.38009 -3.63957 35314 ft 440 kts 346°
2026-04-30 09:45 42.41035 -3.64556 35549 ft 440 kts 346°
2026-04-30 09:45 42.44024 -3.65154 35770 ft 439 kts 346°
2026-04-30 09:45 42.47054 -3.65763 35991 ft 439 kts 346°
2026-04-30 09:45 42.50077 -3.66368 36110 ft 439 kts 346°
2026-04-30 09:46 42.56080 -3.67563 36121 ft 434 kts 346°
2026-04-30 09:46 42.62058 -3.68754 36114 ft 433 kts 346°
2026-04-30 09:47 42.68032 -3.69954 36103 ft 433 kts 346°
2026-04-30 09:47 42.73992 -3.71057 36100 ft 435 kts 348°
2026-04-30 09:48 42.80003 -3.72041 36099 ft 435 kts 348°
2026-04-30 09:48 42.86009 -3.73020 36099 ft 434 kts 348°
2026-04-30 09:49 42.92008 -3.74041 36102 ft 434 kts 348°
2026-04-30 09:49 42.98007 -3.75078 36098 ft 434 kts 348°
2026-04-30 09:50 43.04002 -3.76120 36099 ft 434 kts 348°
2026-04-30 09:50 43.09992 -3.77158 36103 ft 434 kts 348°
2026-04-30 09:51 43.15962 -3.78176 36099 ft 434 kts 348°
2026-04-30 09:51 43.21957 -3.79204 36104 ft 434 kts 348°
2026-04-30 09:52 43.27949 -3.80243 36098 ft 434 kts 348°
2026-04-30 09:52 43.33897 -3.81283 36099 ft 433 kts 348°
2026-04-30 09:53 43.39879 -3.82320 36095 ft 433 kts 349°
2026-04-30 09:53 43.45868 -3.83361 36098 ft 433 kts 349°
2026-04-30 09:54 43.51844 -3.84399 36103 ft 433 kts 349°
2026-04-30 09:54 43.57834 -3.85442 36107 ft 432 kts 349°
2026-04-30 09:55 43.63802 -3.86490 36107 ft 432 kts 349°
2026-04-30 09:55 43.69780 -3.87543 36111 ft 432 kts 349°
2026-04-30 09:56 43.75699 -3.88589 36110 ft 431 kts 349°
2026-04-30 09:56 43.81652 -3.89642 36111 ft 431 kts 349°
2026-04-30 09:57 43.87598 -3.90689 36102 ft 431 kts 349°
2026-04-30 09:57 43.93548 -3.91742 36103 ft 430 kts 349°
2026-04-30 09:58 43.99492 -3.92800 36097 ft 431 kts 350°
2026-04-30 09:58 44.05409 -3.93857 36095 ft 431 kts 350°
2026-04-30 09:59 44.17329 -3.95984 36090 ft 431 kts 350°
2026-04-30 10:00 44.26253 -3.97567 36084 ft 432 kts 351°
2026-04-30 10:01 44.35041 -4.00028 36086 ft 428 kts 335°
2026-04-30 10:02 44.43223 -4.04931 36080 ft 428 kts 335°
2026-04-30 10:02 44.48710 -4.08200 36078 ft 428 kts 335°
2026-04-30 10:03 44.54192 -4.11479 36082 ft 428 kts 335°
2026-04-30 10:03 44.56931 -4.13125 36298 ft 428 kts 335°
2026-04-30 10:03 44.59635 -4.14753 36083 ft 428 kts 335°
2026-04-30 10:04 44.65125 -4.18058 36080 ft 428 kts 335°
2026-04-30 10:04 44.70603 -4.21362 36074 ft 428 kts 335°
2026-04-30 10:05 44.76049 -4.24653 36079 ft 429 kts 335°
2026-04-30 10:05 44.81549 -4.27975 36075 ft 429 kts 335°
2026-04-30 10:06 44.87052 -4.31312 36076 ft 430 kts 335°
2026-04-30 10:06 44.92514 -4.34634 36076 ft 430 kts 335°
2026-04-30 10:07 44.98013 -4.37982 36069 ft 430 kts 335°
2026-04-30 10:07 45.03523 -4.41337 36066 ft 431 kts 335°
2026-04-30 10:08 45.09026 -4.44713 36061 ft 431 kts 335°
2026-04-30 10:08 45.14540 -4.48098 36061 ft 431 kts 335°
2026-04-30 10:09 45.20020 -4.51466 36056 ft 432 kts 335°
2026-04-30 10:09 45.25528 -4.54865 36058 ft 432 kts 335°
2026-04-30 10:10 45.31071 -4.58295 36055 ft 433 kts 335°
2026-04-30 10:10 45.36611 -4.61721 36057 ft 434 kts 335°
2026-04-30 10:11 45.42124 -4.65129 36053 ft 435 kts 335°
2026-04-30 10:11 45.47686 -4.68570 36052 ft 436 kts 335°
2026-04-30 10:12 45.53259 -4.72038 36054 ft 437 kts 335°
2026-04-30 10:12 45.58820 -4.75515 36058 ft 437 kts 335°
2026-04-30 10:13 45.64401 -4.79007 36056 ft 437 kts 335°
2026-04-30 10:13 45.69984 -4.82497 36063 ft 438 kts 335°
2026-04-30 10:14 45.75543 -4.85997 36055 ft 438 kts 335°
2026-04-30 10:14 45.83920 -4.91266 36057 ft 439 kts 335°
2026-04-30 10:15 45.89531 -4.94807 36064 ft 440 kts 335°
2026-04-30 10:15 45.95158 -4.98368 36060 ft 441 kts 334°
2026-04-30 10:16 46.00749 -5.01921 36058 ft 441 kts 334°
2026-04-30 10:17 46.09187 -5.07294 36055 ft 442 kts 334°
2026-04-30 10:17 46.17641 -5.12673 36050 ft 443 kts 334°
2026-04-30 10:18 46.23241 -5.16252 36051 ft 443 kts 334°
2026-04-30 10:19 46.31709 -5.21681 36049 ft 444 kts 334°
2026-04-30 10:19 46.37359 -5.25324 36050 ft 444 kts 334°
2026-04-30 10:20 46.43022 -5.28985 36047 ft 445 kts 334°
2026-04-30 10:20 46.51491 -5.34450 36051 ft 446 kts 334°
2026-04-30 10:21 46.57168 -5.38134 36053 ft 446 kts 334°
2026-04-30 10:21 46.63018 -5.41205 36046 ft 449 kts 347°
2026-04-30 10:22 46.69195 -5.42708 36048 ft 450 kts 349°
2026-04-30 10:22 46.75384 -5.44203 36043 ft 451 kts 349°
2026-04-30 10:23 46.81582 -5.45712 36050 ft 451 kts 349°
2026-04-30 10:23 46.87751 -5.47207 36041 ft 452 kts 349°
2026-04-30 10:24 46.93977 -5.48717 36044 ft 452 kts 349°
2026-04-30 10:24 47.00206 -5.50236 36039 ft 453 kts 349°
2026-04-30 10:25 47.06395 -5.51753 36043 ft 454 kts 349°
2026-04-30 10:25 47.12630 -5.53287 36035 ft 454 kts 349°
2026-04-30 10:26 47.18883 -5.54832 36041 ft 455 kts 349°
2026-04-30 10:26 47.25143 -5.56372 36034 ft 456 kts 349°
2026-04-30 10:27 47.31374 -5.57898 36038 ft 456 kts 349°
2026-04-30 10:27 47.36589 -5.59181 36031 ft 457 kts 349°
2026-04-30 10:28 47.42875 -5.60741 36037 ft 457 kts 349°
2026-04-30 10:28 47.49153 -5.62313 36031 ft 458 kts 349°
2026-04-30 10:29 47.55438 -5.63872 36037 ft 458 kts 349°
2026-04-30 10:29 47.61734 -5.65436 36030 ft 459 kts 349°
2026-04-30 10:30 47.68036 -5.67008 36032 ft 459 kts 350°
2026-04-30 10:30 47.74301 -5.68581 36026 ft 460 kts 350°
2026-04-30 10:31 47.80617 -5.70176 36034 ft 461 kts 350°
2026-04-30 10:31 47.86959 -5.71774 36031 ft 461 kts 350°
2026-04-30 10:32 47.93303 -5.73371 36035 ft 462 kts 350°
2026-04-30 10:32 47.99645 -5.74978 36034 ft 462 kts 350°
2026-04-30 10:33 48.05962 -5.76587 36037 ft 463 kts 350°
2026-04-30 10:33 48.12322 -5.78207 36033 ft 463 kts 350°
2026-04-30 10:34 48.18678 -5.79827 36035 ft 463 kts 350°
2026-04-30 10:34 48.25044 -5.81449 36025 ft 464 kts 350°
2026-04-30 10:35 48.31379 -5.83072 36031 ft 465 kts 350°
2026-04-30 10:35 48.37772 -5.84717 36027 ft 465 kts 350°
2026-04-30 10:36 48.44171 -5.86376 36031 ft 466 kts 350°
2026-04-30 10:36 48.50559 -5.88030 36024 ft 466 kts 350°
2026-04-30 10:37 48.56910 -5.89673 36033 ft 466 kts 350°
2026-04-30 10:37 48.63312 -5.91333 36032 ft 466 kts 351°
2026-04-30 10:38 48.69707 -5.92992 36039 ft 466 kts 351°
2026-04-30 10:38 48.76099 -5.94656 36036 ft 466 kts 351°
2026-04-30 10:39 48.82490 -5.96328 36043 ft 465 kts 351°
2026-04-30 10:39 48.88838 -5.98008 36038 ft 465 kts 351°
2026-04-30 10:40 48.95217 -5.99695 36044 ft 465 kts 351°
2026-04-30 10:40 49.01600 -6.01371 36043 ft 464 kts 351°
2026-04-30 10:41 49.07931 -6.03037 36046 ft 464 kts 351°
2026-04-30 10:41 49.14319 -6.04734 36043 ft 464 kts 351°
2026-04-30 10:42 49.20692 -6.06423 36040 ft 464 kts 351°
2026-04-30 10:42 49.27056 -6.08123 36036 ft 464 kts 351°
2026-04-30 10:43 49.33379 -6.09823 36035 ft 464 kts 351°
2026-04-30 10:43 49.39749 -6.11537 36030 ft 465 kts 352°
2026-04-30 10:44 49.46139 -6.13246 36033 ft 465 kts 352°
2026-04-30 10:44 49.52473 -6.14941 36031 ft 464 kts 354°
2026-04-30 10:45 49.58896 -6.15779 36036 ft 463 kts 358°
2026-04-30 10:45 49.65332 -6.16547 36032 ft 463 kts 358°
2026-04-30 10:46 49.71761 -6.17317 36038 ft 462 kts 358°
2026-04-30 10:46 49.78137 -6.18080 36040 ft 462 kts 358°
2026-04-30 10:47 49.84543 -6.18853 36041 ft 461 kts 358°
2026-04-30 10:47 49.90944 -6.19630 36044 ft 459 kts 358°
2026-04-30 10:48 49.97272 -6.20390 36042 ft 458 kts 358°
2026-04-30 10:48 50.03636 -6.21157 36039 ft 457 kts 358°
2026-04-30 10:49 50.09989 -6.21921 36042 ft 457 kts 359°
2026-04-30 10:49 50.16323 -6.22692 36041 ft 457 kts 359°
2026-04-30 10:50 50.22636 -6.23451 36045 ft 456 kts 359°
2026-04-30 10:50 50.28977 -6.24205 36048 ft 456 kts 359°
2026-04-30 10:51 50.35275 -6.24981 36053 ft 456 kts 359°
2026-04-30 10:51 50.41604 -6.25774 36051 ft 456 kts 359°
2026-04-30 10:52 50.47950 -6.26558 36055 ft 456 kts 359°
2026-04-30 10:52 50.54273 -6.27323 36054 ft 455 kts 359°
2026-04-30 10:53 50.60557 -6.28087 36062 ft 455 kts 359°
2026-04-30 10:53 50.66872 -6.28872 36063 ft 454 kts 359°
2026-04-30 10:54 50.73183 -6.29655 36068 ft 454 kts 359°
2026-04-30 10:54 50.76326 -6.30048 35831 ft 451 kts 360°
2026-04-30 10:54 50.79441 -6.30441 35386 ft 446 kts 360°
2026-04-30 10:55 50.82525 -6.30830 34830 ft 445 kts
2026-04-30 10:55 50.85576 -6.31211 34300 ft 444 kts
2026-04-30 10:55 50.88650 -6.31591 34085 ft 444 kts
2026-04-30 10:55 50.91720 -6.32319 34057 ft 448 kts 354°
2026-04-30 10:56 50.97877 -6.34146 34078 ft 449 kts 355°
2026-04-30 10:56 51.04028 -6.35953 34072 ft 448 kts 355°
2026-04-30 10:57 51.10127 -6.37746 34085 ft 448 kts 355°
2026-04-30 10:57 51.16255 -6.39566 34073 ft 447 kts 356°
2026-04-30 10:58 51.19347 -6.40487 33936 ft 451 kts 351°
2026-04-30 10:58 51.22452 -6.41413 34087 ft 457 kts 351°
2026-04-30 10:58 51.28773 -6.43297 34081 ft 468 kts 351°
2026-04-30 10:59 51.35218 -6.45076 34080 ft 470 kts 353°
2026-04-30 10:59 51.41687 -6.46715 34083 ft 470 kts 353°
2026-04-30 11:00 51.44908 -6.47529 33915 ft 467 kts 353°
2026-04-30 11:00 51.48106 -6.48349 33639 ft 462 kts 353°
2026-04-30 11:00 51.51235 -6.49168 33364 ft 460 kts 353°
2026-04-30 11:00 51.54391 -6.50008 33083 ft 458 kts 353°
2026-04-30 11:01 51.57527 -6.50846 32823 ft 456 kts 353°
2026-04-30 11:01 51.60648 -6.51678 32557 ft 454 kts 353°
2026-04-30 11:01 51.63764 -6.52506 32294 ft 453 kts 353°
2026-04-30 11:01 51.66863 -6.53325 32034 ft 451 kts 353°
2026-04-30 11:02 51.69961 -6.54143 31777 ft 450 kts 353°
2026-04-30 11:02 51.73042 -6.54960 31481 ft 446 kts 353°
2026-04-30 11:02 51.76098 -6.55775 30954 ft 445 kts 353°
2026-04-30 11:02 51.79158 -6.56421 30449 ft 441 kts
2026-04-30 11:03 51.82214 -6.56649 29991 ft 437 kts
2026-04-30 11:03 51.85195 -6.56879 29531 ft 433 kts
2026-04-30 11:03 51.88185 -6.57119 29116 ft 428 kts
2026-04-30 11:04 51.94096 -6.57597 28269 ft 420 kts
2026-04-30 11:04 51.97006 -6.57824 27848 ft 417 kts
2026-04-30 11:04 51.99895 -6.58046 27438 ft 413 kts
2026-04-30 11:04 52.02724 -6.58266 27013 ft 411 kts
2026-04-30 11:05 52.05576 -6.58487 26601 ft 410 kts
2026-04-30 11:05 52.08423 -6.58708 26151 ft 410 kts
2026-04-30 11:05 52.11261 -6.58931 25724 ft 406 kts
2026-04-30 11:05 52.14088 -6.59154 25278 ft 404 kts
2026-04-30 11:06 52.16900 -6.59374 24827 ft 402 kts
2026-04-30 11:06 52.19696 -6.59598 24363 ft 402 kts
2026-04-30 11:06 52.22454 -6.59818 23919 ft 401 kts 360°
2026-04-30 11:06 52.25244 -6.60039 23416 ft 400 kts 360°
2026-04-30 11:07 52.28019 -6.60262 22950 ft 397 kts 360°
2026-04-30 11:07 52.30768 -6.60486 22501 ft 394 kts
2026-04-30 11:07 52.33496 -6.60711 22067 ft 391 kts
2026-04-30 11:07 52.36216 -6.60932 21630 ft 389 kts
2026-04-30 11:08 52.38916 -6.61149 21196 ft 387 kts
2026-04-30 11:08 52.41603 -6.61359 20773 ft 385 kts
2026-04-30 11:08 52.44247 -6.61565 20351 ft 384 kts
2026-04-30 11:08 52.46913 -6.61777 19933 ft 383 kts
2026-04-30 11:09 52.49573 -6.61993 19513 ft 382 kts
2026-04-30 11:09 52.52233 -6.62213 19099 ft 381 kts
2026-04-30 11:09 52.54888 -6.62432 18680 ft 381 kts
2026-04-30 11:09 52.57533 -6.62647 18251 ft 381 kts
2026-04-30 11:10 52.60178 -6.62859 17814 ft 379 kts
2026-04-30 11:10 52.62808 -6.63068 17408 ft 377 kts
2026-04-30 11:10 52.65388 -6.63276 17002 ft 375 kts
2026-04-30 11:10 52.67996 -6.63491 16595 ft 374 kts
2026-04-30 11:11 52.70588 -6.63702 16193 ft 372 kts
2026-04-30 11:11 52.73173 -6.63910 15790 ft 371 kts
2026-04-30 11:11 52.75752 -6.64117 15403 ft 370 kts
2026-04-30 11:11 52.78304 -6.64326 15102 ft 360 kts
2026-04-30 11:12 52.80729 -6.64544 15024 ft 339 kts
2026-04-30 11:12 52.83050 -6.64757 14947 ft 329 kts
2026-04-30 11:12 52.85314 -6.64963 14879 ft 323 kts
2026-04-30 11:12 52.87561 -6.65164 14811 ft 323 kts
2026-04-30 11:13 52.89811 -6.65365 14739 ft 323 kts
2026-04-30 11:13 52.92051 -6.65566 14616 ft 323 kts
2026-04-30 11:13 52.94264 -6.65763 14284 ft 324 kts
2026-04-30 11:13 52.96528 -6.65964 13897 ft 326 kts
2026-04-30 11:14 52.98038 -6.66100 13612 ft 328 kts
2026-04-30 11:14 53.00325 -6.66307 13215 ft 329 kts
2026-04-30 11:14 53.02618 -6.66514 12813 ft 329 kts 360°
2026-04-30 11:14 53.05659 -6.66786 12279 ft 331 kts 360°
2026-04-30 11:15 53.07218 -6.66925 11996 ft 332 kts 359°
2026-04-30 11:15 53.09524 -6.67132 11584 ft 332 kts 359°
2026-04-30 11:15 53.11802 -6.67337 11167 ft 333 kts 359°
2026-04-30 11:15 53.14123 -6.67546 10737 ft 334 kts 359°
2026-04-30 11:16 53.16444 -6.67755 10307 ft 335 kts 359°
2026-04-30 11:16 53.18772 -6.67964 9969 ft 331 kts 359°
2026-04-30 11:16 53.21040 -6.68173 9775 ft 322 kts 359°
2026-04-30 11:16 53.23270 -6.68380 9374 ft 318 kts 359°
2026-04-30 11:17 53.25469 -6.68583 8800 ft 315 kts 359°
2026-04-30 11:17 53.27653 -6.68780 8235 ft 313 kts 359°
2026-04-30 11:17 53.29774 -6.68974 7994 ft 299 kts 359°
2026-04-30 11:17 53.31786 -6.69166 7838 ft 279 kts 360°
2026-04-30 11:18 53.33691 -6.69343 7612 ft 272 kts
2026-04-30 11:18 53.37356 -6.69487 7175 ft 248 kts 10°
2026-04-30 11:18 53.39019 -6.69227 7024 ft 233 kts
2026-04-30 11:19 53.40634 -6.68975 6494 ft 235 kts 10°
2026-04-30 11:19 53.42279 -6.68718 5878 ft 237 kts 10°
2026-04-30 11:19 53.43879 -6.68407 5540 ft 224 kts 20°
2026-04-30 11:19 53.45146 -6.67120 5009 ft 209 kts 59°
2026-04-30 11:20 53.45638 -6.65004 4625 ft 187 kts 93°
2026-04-30 11:20 53.45566 -6.62906 4362 ft 177 kts 101°
2026-04-30 11:20 53.45457 -6.60859 4118 ft 175 kts 101°
2026-04-30 11:20 53.45352 -6.58839 3875 ft 173 kts 101°
2026-04-30 11:21 53.45248 -6.56843 3646 ft 171 kts 102°
2026-04-30 11:21 53.45145 -6.54865 3427 ft 170 kts 102°
2026-04-30 11:21 53.45045 -6.52921 3147 ft 168 kts 101°
2026-04-30 11:21 53.44949 -6.51012 3023 ft 155 kts 101°
2026-04-30 11:22 53.44862 -6.49248 3006 ft 150 kts 102°
2026-04-30 11:22 53.44778 -6.47561 2754 ft 141 kts 102°
2026-04-30 11:22 53.44687 -6.45927 2417 ft 139 kts 99°
2026-04-30 11:22 53.44593 -6.44286 2208 ft 141 kts 100°
2026-04-30 11:23 53.44499 -6.42634 2019 ft 143 kts 99°
2026-04-30 11:23 53.44411 -6.40955 1793 ft 142 kts 100°
2026-04-30 11:23 53.44283 -6.37885 1407 ft 129 kts 106°
2026-04-30 11:24 53.44201 -6.36387 1207 ft 127 kts 108°
2026-04-30 11:24 53.44103 -6.34922 1050 ft 129 kts 110°
2026-04-30 11:24 53.44012 -6.33406 909 ft 132 kts 103°
2026-04-30 11:25 53.43845 -6.30255 527 ft 138 kts 106°
2026-04-30 11:25 53.43753 -6.28618 334 ft 137 kts 104°
2026-04-30 11:25 53.43599 -6.26174 211 ft 55 kts 95°
2026-04-30 11:26 53.43496 -6.25753 214 ft 15 kts 157°
2026-04-30 11:26 53.43404 -6.25686 213 ft 12 kts 157°
2026-04-30 11:26 53.43347 -6.25647 212 ft 6 kts 158°
2026-04-30 11:27 53.43310 -6.25621 211 ft 6 kts 156°
2026-04-30 11:27 53.43249 -6.25576 216 ft 8 kts 155°
2026-04-30 11:27 53.43192 -6.25533 213 ft 15 kts 157°
2026-04-30 11:27 53.43087 -6.25457 220 ft 14 kts 157°
2026-04-30 11:28 53.42909 -6.25329 217 ft 16 kts 153°
2026-04-30 11:28 53.42809 -6.25238 215 ft 17 kts 131°
2026-04-30 11:28 53.42779 -6.25047 217 ft 17 kts 129°
2026-04-30 11:29 53.42680 -6.24941 213 ft 16 kts 147°
2026-04-30 11:29 53.42688 -6.24818 211 ft 12 kts 53°
2026-04-30 11:29 53.42730 -6.24627 211 ft 2 kts 124°
2026-04-30 11:30 53.42714 -6.24610 215 ft 5 kts 146°
2026-04-30 11:30 53.42692 -6.24579 211 ft 3 kts 140°
2026-04-30 11:30 53.42688 -6.24573 211 ft 0 kts 140°